Location: Unspecified
(56.5167°N, 0.0000°E)
Time: 00:17:53
(UTC+02:00)

Cosmos 2058 - Visible Passes

Search period start: 22 October 2019 00:00
Search period end: 31 October 2019 23:00
Orbit: 563 x 583 km, 82.5° (Epoch: 21 October)

Date Brightness Start Highest point End Pass type
(mag) Time Alt. Az. Time Alt. Az. Time Alt. Az.
22 Oct 4.0 19:30:38 10° N 19:34:12 25° ENE 19:37:44 10° ESE visible
22 Oct 3.8 21:07:16 10° NNW 21:11:23 50° W 21:15:27 10° S visible
23 Oct 3.7 19:33:30 10° N 19:37:16 30° ENE 19:41:01 10° SE visible
23 Oct 4.2 21:10:20 10° NNW 21:14:19 41° W 21:18:15 10° SSW visible
24 Oct 6.6 08:09:18 10° E 08:09:56 10° ENE 08:10:34 10° ENE visible
24 Oct 3.5 19:36:23 10° N 19:40:20 36° ENE 19:44:15 10° SE visible
24 Oct 4.7 21:13:26 10° NNW 21:17:14 33° W 21:21:00 10° SSW visible
25 Oct 6.2 08:10:53 10° ESE 08:12:46 13° E 08:14:39 10° NE visible
25 Oct 3.2 19:39:18 10° N 19:43:22 44° ENE 19:47:25 10° SE visible
25 Oct 5.1 21:16:34 10° NNW 21:20:08 27° W 21:23:41 10° SSW visible
26 Oct 6.0 08:13:05 10° ESE 08:15:36 16° E 08:18:07 10° NE visible
26 Oct 3.0 19:42:14 10° N 19:46:25 55° ENE 19:50:32 10° SSE visible
26 Oct 5.4 21:19:44 10° NW 21:23:01 22° W 21:26:17 10° SW visible
27 Oct 5.9 07:15:29 10° SE 07:18:27 19° E 07:21:26 10° NE visible
27 Oct 2.9 18:45:12 10° N 18:49:25 68° ENE 18:53:37 10° SSE visible
27 Oct 5.8 20:22:57 10° NW 20:25:53 18° W 20:28:48 10° SW visible
28 Oct 2.9 18:48:10 10° NNW 18:52:25 84° ENE 18:56:38 10° SSE visible
28 Oct 6.1 20:26:18 10° NW 20:28:44 15° W 20:31:10 10° WSW visible
29 Oct 5.4 07:20:38 10° SSE 07:24:13 28° E 07:27:49 10° NNE visible
29 Oct 3.1 18:51:10 10° NNW 18:55:24 79° W 18:59:36 10° S visible
29 Oct 6.3 20:29:49 10° NW 20:31:35 12° W 20:33:19 10° WSW visible
30 Oct 3.4 18:54:11 10° NNW 18:58:22 63° W 19:02:30 10° S visible
31 Oct 4.5 07:26:04 10° SSE 07:30:02 42° E 07:34:02 10° NNE visible
31 Oct 3.9 18:57:13 10° NNW 19:01:19 51° W 19:05:22 10° S visible
